Simultaneous Nadir Overpasses (SNOs) Predictions

Prediction of SNOs between GOES-16 and TERRA Satellite Orbit:

Table of predicted SNOs for the next 14.0 days since TLE Epoch: 4/25/2025
Index Date Time (GOES-16) GOES-16 Lat,Lon TERRA Lat,Lon Distance(km) Time Diff (sec)
1 04/27/2025 02:50:49 -0.07, -83.63 0.35, -81.63 227.13 80
2 04/27/2025 15:12:59 0.07, -83.91 0.58, -86.39 280.88 80
3 04/29/2025 14:51:20 0.07, -84.93 -0.56, -81.84 350.88 80
4 04/30/2025 03:13:40 -0.06, -85.18 -0.39, -86.63 165.73 80
5 05/02/2025 02:52:01 -0.06, -86.20 0.79, -82.09 466.52 80
6 05/02/2025 15:14:11 0.05, -86.48 0.12, -86.85 41.21 80
7 05/05/2025 03:12:10 -0.05, -87.76 0.10, -87.09 76.04 80
8 05/05/2025 15:34:19 0.04, -88.05 0.86, -91.84 431.23 80
9 05/07/2025 15:12:39 0.04, -89.09 -0.33, -87.29 203.76 80
10 05/08/2025 03:34:59 -0.04, -89.34 -0.59, -92.09 311.94 80
